DW2513 Weather Reports


Display with metric or nautical units.
time (UTC)temp
F
wind
direction
speed
MPH
gust
MPH
rain 1hr
in
rain 24hr
in
rain mn
in
humidity
%
barometer
mb
20260504050304 37 127 0.0 0.0 0.00 0.00 0.00 68 1005.7
20260504045804 36 127 0.0 0.0 0.00 0.00 0.00 68 1005.7
20260504045304 36 127 0.0 0.0 0.00 0.00 0.00 68 1005.7
20260504044804 36 127 0.0 0.0 0.00 0.00 0.00 68 1005.7
20260504043305 37 127 0.0 0.0 0.00 0.00 0.00 67 1005.7
20260504041805 36 127 0.0 0.0 0.00 0.00 0.00 66 1005.7
20260504041304 36 127 0.0 0.0 0.00 0.00 0.00 65 1005.7
20260504040820 36 127 0.0 0.0 0.00 0.00 0.00 65 1005.7
20260504040305 36 127 0.0 0.0 0.00 0.00 0.00 65 1005.6
20260504035805 36 127 0.0 0.0 0.00 0.00 0.00 64 1005.6
20260504032804 37 127 0.0 0.0 0.00 0.00 0.00 62 1005.6
20260504031805 37 127 0.0 0.0 0.00 0.00 0.00 60 1005.6
20260504031304 37 127 0.0 0.0 0.00 0.00 0.00 60 1005.6
20260504030305 38 127 0.0 0.0 0.00 0.00 0.00 59 1005.6
20260504025304 38 127 0.0 0.0 0.00 0.00 0.00 58 1005.1
20260504022805 39 127 0.0 0.0 0.00 0.00 0.00 54 1005.1
20260504021304 39 127 0.0 0.0 0.00 0.00 0.00 53 1005.1
20260504020805 40 127 0.0 0.0 0.00 0.00 0.00 52 1005.1
20260504015305 41 127 0.0 0.0 0.00 0.00 0.00 51 1005.1
20260504014805 41 127 0.0 0.0 0.00 0.00 0.00 49 1005.1
20260504014304 41 127 0.0 0.0 0.00 0.00 0.00 49 1005.1
20260504013804 41 127 0.0 0.0 0.00 0.00 0.00 48 1005.1
20260504010304 44 127 0.0 0.0 0.00 0.00 0.00 48 1004.8
20260504003804 44 127 0.0 0.0 0.00 0.00 0.00 43 1004.6
20260504003304 45 127 0.0 0.0 0.00 0.00 0.00 43 1004.4
20260504002805 45 127 0.0 0.0 0.00 0.00 0.00 41 1004.4
20260504002305 45 127 0.0 0.0 0.00 0.00 0.00 44 1004.3
20260504001305 45 127 0.0 0.0 0.00 0.00 0.00 39 1003.8
20260504000305 46 127 0.0 0.0 0.00 0.00 0.00 38 1003.8
20260503235304 47 127 0.0 0.0 0.00 0.00 0.00 38 1003.8
20260503234804 47 127 0.0 0.0 0.00 0.00 0.00 37 1003.8
20260503234305 47 127 0.0 0.0 0.00 0.00 0.00 35 1003.8
20260503233305 48 127 0.0 0.0 0.00 0.00 0.00 35 1003.8
20260503232805 49 127 0.0 0.0 0.00 0.00 0.00 35 1003.8
20260503232305 49 127 0.0 2.0 0.00 0.00 0.00 33 1003.8
20260503231804 49 106 0.0 0.0 0.00 0.00 0.00 32 1003.8
20260503231304 49 88 1.0 3.0 0.00 0.00 0.00 30 1003.8
20260503230304 50 165 0.0 0.0 0.00 0.00 0.00 31 1003.7
20260503225804 50 165 0.0 0.0 0.00 0.00 0.00 30 1003.7
20260503224304 50 183 0.0 3.0 0.00 0.00 0.00 30 1003.7
20260503223804 50 182 2.0 6.0 0.00 0.00 0.00 30 1003.7
20260503223304 50 29 1.0 6.0 0.00 0.00 0.00 30 1003.7
20260503222805 50 168 1.0 5.0 0.00 0.00 0.00 31 1003.7
20260503220805 50 175 1.0 5.0 0.00 0.00 0.00 30 1003.6
20260503214305 50 65 1.0 5.0 0.00 0.00 0.00 30 1003.6
20260503213804 50 109 2.0 7.0 0.00 0.00 0.00 30 1003.6
20260503212804 50 146 2.0 7.0 0.00 0.00 0.00 30 1003.5
20260503212305 50 150 1.0 5.0 0.00 0.00 0.00 30 1003.6
20260503211804 50 231 1.0 10.0 0.00 0.00 0.00 29 1003.6
20260503211304 50 128 1.0 6.0 0.00 0.00 0.00 31 1003.6
20260503205804 50 154 3.0 9.0 0.00 0.00 0.00 30 1003.6
20260503205304 50 158 1.0 3.0 0.00 0.00 0.00 31 1003.6
20260503204304 49 236 1.0 7.0 0.00 0.00 0.00 31 1003.6
20260503203805 50 74 0.0 2.0 0.00 0.00 0.00 31 1003.6
20260503202804 50 118 3.0 7.0 0.00 0.00 0.00 30 1003.6
20260503202304 50 167 2.0 6.0 0.00 0.00 0.00 30 1003.6
20260503201805 50 150 1.0 6.0 0.00 0.00 0.00 31 1003.6
20260503200804 50 166 2.0 7.0 0.00 0.00 0.00 30 1003.6
20260503195805 50 91 1.0 6.0 0.00 0.00 0.00 30 1003.6
20260503194304 50 113 2.0 10.0 0.00 0.00 0.00 29 1003.6
20260503193804 50 110 4.0 12.0 0.00 0.00 0.00 29 1003.7
20260503192805 49 145 2.0 6.0 0.00 0.00 0.00 30 1003.7
20260503192305 49 48 2.0 6.0 0.00 0.00 0.00 30 1003.7
20260503191805 49 32 1.0 10.0 0.00 0.00 0.00 31 1003.7
20260503190805 49 224 3.0 10.0 0.00 0.00 0.00 30 1003.7
20260503184304 49 146 1.0 7.0 0.00 0.00 0.00 30 1003.5
20260503183304 49 135 4.0 12.0 0.00 0.00 0.00 32 1003.5
20260503182804 49 155 5.0 10.0 0.00 0.00 0.00 31 1003.2
20260503182305 50 207 4.0 7.0 0.00 0.00 0.00 30 1003.2
20260503181804 50 163 2.0 6.0 0.00 0.00 0.00 30 1003.2
20260503181304 51 91 2.0 12.0 0.00 0.00 0.00 28 1003.2
20260503180305 50 60 1.0 10.0 0.00 0.00 0.00 26 1003.2
20260503175805 50 97 2.0 10.0 0.00 0.00 0.00 27 1003.2
20260503175305 51 339 2.0 7.0 0.00 0.00 0.00 26 1003.2
20260503174804 51 69 1.0 12.0 0.00 0.00 0.00 29 1003.2
20260503173804 50 66 0.0 7.0 0.00 0.00 0.00 28 1003.2
20260503173304 50 96 1.0 5.0 0.00 0.00 0.00 28 1003.2
20260503172804 50 137 3.0 9.0 0.00 0.00 0.00 27 1003.2
20260503170304 50 169 2.0 7.0 0.00 0.00 0.00 28 1003.6
20260503150804 46 9 3.0 12.0 0.00 0.03 0.00 39 1004.2
20260503150304 46 144 1.0 3.0 0.00 0.03 0.00 40 1004.2
20260503131304 44 205 1.0 6.0 0.00 0.03 0.00 54 1004.7
20260503130805 44 33 2.0 6.0 0.00 0.03 0.00 55 1004.7
20260503080804 38 180 0.0 0.0 0.00 0.07 0.00 78 1005.7
20260503080305 38 180 0.0 0.0 0.00 0.07 0.00 78 1005.7
20260503072305 37 180 0.0 0.0 0.00 0.08 0.00 77 1005.7
20260503071305 37 180 0.0 0.0 0.00 0.08 0.00 76 1006.1
20260503070804 38 180 0.0 0.0 0.00 0.08 0.00 77 1006.1
20260503070305 38 180 0.0 0.0 0.00 0.08 0.00 76 1006.1